DW6352 Weather Reports


Display with metric or nautical units.
time (UTC)temp
F
wind
direction
speed
MPH
gust
MPH
rain 1hr
in
rain 24hr
in
rain mn
in
humidity
%
barometer
mb
20260502203019 62 309 5.0 16.0 0.00 0.00 0.00 33 1011.9
20260502201517 62 195 7.0 17.0 0.00 0.00 0.00 34 1012.2
20260502200011 61 216 10.0 22.0 0.00 0.00 0.00 34 1012.7
20260502194510 62 242 9.0 17.0 0.00 0.00 0.00 33 1012.9
20260502193008 61 202 9.0 20.0 0.00 0.00 0.00 35 1013.1
20260502191511 62 189 10.0 19.0 0.00 0.00 0.00 33 1013.5
20260502190005 60 178 10.0 23.0 0.00 0.00 0.00 35 1013.8
20260502184600 60 193 10.0 16.0 0.00 0.00 0.00 36 1014.2
20260502183058 58 192 7.0 18.0 0.00 0.00 0.00 36 1014.3
20260502181556 59 244 10.0 21.0 0.00 0.00 0.00 34 1014.5
20260502163042 55 252 4.0 14.0 0.00 0.00 0.00 36 1016.4
20260502161536 54 233 6.0 14.0 0.00 0.00 0.00 37 1016.6
20260502151535 52 290 4.0 12.0 0.00 0.00 0.00 41 1017.3
20260502130107 39 238 2.0 7.0 0.00 0.00 0.00 75 1018.2
20260502123054 33 244 2.0 5.0 0.00 0.00 0.00 86 1018.1
20260502121539 31 255 1.0 5.0 0.00 0.00 0.00 86 1018.1
20260502114532 28 171 1.0 2.0 0.00 0.00 0.00 85 1018.0
20260502113035 28 171 1.0 4.0 0.00 0.00 0.00 84 1018.0
20260502111534 28 244 2.0 4.0 0.00 0.00 0.00 83 1018.0
20260502110028 28 244 2.0 3.0 0.00 0.00 0.00 83 1018.0
20260502104522 27 244 1.0 3.0 0.00 0.00 0.00 81 1017.8
20260502103022 28 244 2.0 3.0 0.00 0.00 0.00 81 1017.8
20260502101520 28 244 1.0 3.0 0.00 0.00 0.00 81 1017.8
20260502091514 29 244 0.0 2.0 0.00 0.00 0.00 79 1017.7
20260502070055 32 244 1.0 2.0 0.00 0.00 0.00 74 1018.1
20260502064553 32 244 0.0 4.0 0.00 0.00 0.00 73 1018.0
20260502063114 32 244 0.0 2.0 0.00 0.00 0.00 72 1018.2
20260502061553 33 244 1.0 4.0 0.00 0.00 0.00 72 1018.1
20260502060048 33 256 1.0 3.0 0.00 0.00 0.00 71 1018.0
20260502054548 33 256 1.0 4.0 0.00 0.00 0.00 71 1018.0
20260502053054 34 250 1.0 4.0 0.00 0.00 0.00 70 1018.1
20260502051543 34 315 2.0 3.0 0.00 0.00 0.00 69 1018.1
20260502050039 35 315 1.0 3.0 0.00 0.00 0.00 68 1018.1
20260502044536 35 315 1.0 3.0 0.00 0.00 0.00 67 1018.1
20260502043039 36 315 1.0 3.0 0.00 0.00 0.00 66 1018.1
20260502041533 37 315 2.0 3.0 0.00 0.00 0.00 64 1018.0
20260502040033 37 315 1.0 2.0 0.00 0.00 0.00 63 1018.0
20260502034531 38 315 1.0 2.0 0.00 0.00 0.00 61 1018.0
20260502033030 39 315 0.0 2.0 0.00 0.00 0.00 60 1018.0
20260502031531 40 315 1.0 2.0 0.00 0.00 0.00 57 1018.1
20260502030030 42 315 1.0 3.0 0.00 0.00 0.00 53 1018.1
20260502024531 43 315 0.0 2.0 0.00 0.00 0.00 47 1018.1
20260502023034 45 315 0.0 3.0 0.00 0.00 0.00 42 1018.0
20260502021533 46 315 1.0 2.0 0.00 0.00 0.00 39 1017.9
20260502020028 48 315 0.0 2.0 0.00 0.00 0.00 37 1017.8
20260502014527 49 315 2.0 4.0 0.00 0.00 0.00 34 1017.7
20260502013027 50 309 2.0 7.0 0.00 0.00 0.00 33 1017.5
20260502011527 50 307 3.0 8.0 0.00 0.00 0.00 31 1017.5
20260502010026 51 330 3.0 10.0 0.00 0.00 0.00 30 1017.4
20260502004526 51 306 3.0 9.0 0.00 0.00 0.00 30 1017.2
20260502003025 52 327 4.0 14.0 0.00 0.00 0.00 29 1017.3
20260502001526 53 15 7.0 13.0 0.00 0.00 0.00 28 1017.3
20260502000024 52 328 4.0 11.0 0.00 0.00 0.00 30 1017.4
20260501234525 52 332 5.0 13.0 0.00 0.00 0.00 29 1017.3
20260501233023 53 18 5.0 10.0 0.00 0.00 0.00 29 1017.4
20260501231523 54 342 7.0 11.0 0.00 0.00 0.00 30 1017.4
20260501230022 54 59 1.0 8.0 0.00 0.00 0.00 32 1017.4
20260501224522 53 324 3.0 9.0 0.00 0.00 0.00 29 1017.4
20260501223021 52 338 2.0 8.0 0.00 0.00 0.00 29 1017.5
20260501221520 51 13 1.0 9.0 0.00 0.00 0.00 31 1017.6
20260501220020 52 317 7.0 11.0 0.00 0.00 0.00 32 1017.6
20260501214518 53 309 8.0 13.0 0.00 0.00 0.00 31 1017.7
20260501213018 53 314 3.0 13.0 0.00 0.00 0.00 30 1017.7
20260501211518 54 11 4.0 12.0 0.00 0.00 0.00 33 1017.7
20260501210021 52 344 2.0 11.0 0.00 0.00 0.00 34 1017.8
20260501204514 53 288 7.0 15.0 0.00 0.00 0.00 32 1017.9